Location: Quispamsis
(45.4447°N, 65.9414°W)
Time: 22:46:24
(UTC-03:00)

Daily predictions for brighter satellites

Satellite Brightness Start Highest point End
(mag) Time Altitude Azimuth Time Altitude Azimuth Time Altitude Azimuth
ERS-1 Rocket 3.1 21:43:29 10° SSE 21:48:27 64° ENE 21:53:27 10° N
Lacrosse 4 Rocket 3.6 21:44:39 10° WSW 21:48:32 33° NW 21:52:33 10° NNE
Terra 3.9 21:47:14 10° E 21:49:44 14° ENE 21:52:16 10° NNE
Cosmos 2061 Rocket 4.2 21:46:06 10° N 21:52:25 60° ENE 21:58:45 10° SSE
Cosmos 2173 Rocket 4.1 21:49:18 10° N 21:55:27 68° E 22:01:39 10° SSE
Cosmos 1184 Rocket 4.2 21:55:45 10° SSW 21:58:58 43° WNW 22:02:14 10° N
Cosmos 2297 Rocket 3.4 21:54:47 10° SW 22:00:14 49° WNW 22:05:45 10° NNE
MetOp-B 4.3 21:54:58 10° SSE 22:00:14 64° ENE 22:05:34 10° N
Cosmos 1356 Rocket 3.5 21:58:00 10° S 22:02:12 64° E 22:06:29 10° NNE
H-2A R/B 2.9 21:58:57 10° SE 22:03:50 38° ENE 22:08:49 10° N
Cosmos 1741 Rocket 4.2 22:02:30 10° SSW 22:07:49 82° WNW 22:13:10 10° NNE
Cosmos 1818 4.3 22:03:15 10° NW 22:08:29 49° WSW 22:13:41 10° SSE
Cosmos 2263 Rocket 3.6 22:05:49 10° SE 22:09:27 18° E 22:13:08 10° ENE
YAOGAN 6 3.7 22:06:25 10° S 22:09:54 44° W 22:13:29 10° NNW
Cosmos 1626 4.5 22:11:34 10° E 22:11:43 10° E 22:11:53 10° E
Meteor 1-21 Rocket 4.2 22:06:06 10° S 22:11:46 77° E 22:17:21 10° NNE
ATLAS 5 CENTAUR R/B 2.1 22:08:28 10° SW 22:13:09 74° NW 22:18:20 10° NE
Cosmos 1726 2.5 22:10:32 10° N 22:14:06 47° ENE 22:17:27 11° SSE
RESURS DK-1 2.4 22:13:01 10° NNW 22:17:12 71° ENE 22:20:58 12° SE
Cosmos 1300 3.3 22:13:44 10° N 22:17:23 40° ENE 22:20:36 12° SE
Cosmos 1725 Rocket 4.3 22:12:39 10° N 22:18:47 53° ENE 22:24:37 11° SSE
Cosmos 1802 Rocket 4.0 22:13:45 10° N 22:19:56 88° E 22:26:05 10° S
Cosmos 1076 Rocket 3.7 22:16:09 10° SSW 22:20:31 76° W 22:24:54 10° N
SL-14 R/B 4.0 22:18:05 10° SSE 22:21:41 35° E 22:25:18 10° NNE
Cosmos 1408 Rocket 3.5 22:19:33 10° S 22:23:50 74° E 22:28:10 10° NNE
ERBS 2.4 22:27:10 10° NW 22:30:34 71° NE 22:33:11 16° ESE
Cosmos 1328 4.2 22:27:13 11° SSE 22:30:52 45° E 22:34:45 10° NNE
Cosmos 2221 4.1 22:28:18 10° NNW 22:32:16 33° W 22:36:13 10° SSW
Cosmos 1603 3.8 22:29:51 10° NNW 22:35:32 80° WSW 22:40:30 13° SSE
Cosmos 2151 4.0 22:34:26 15° SE 22:37:14 30° E 22:41:02 10° NNE
Cosmos 1814 Rocket 4.0 22:34:57 10° NNW 22:40:20 83° ENE 22:44:41 16° SSE
Tiangong 1 1.0 22:38:00 10° W 22:40:42 46° S 22:42:15 21° ESE
Cosmos 371 Rocket 3.3 22:38:31 10° NNW 22:43:22 85° ENE 22:47:09 17° SSE
Cosmos 1500 Rocket 4.0 22:40:57 15° SSE 22:44:20 44° E 22:48:35 10° NNE
Cosmos 1674 4.3 22:41:50 10° SW 22:45:17 34° WNW 22:48:45 10° N
Cosmos 2016 Rocket 4.2 22:40:15 10° NNW 22:46:30 71° W 22:52:38 10° S
ARGOS 3.5 22:42:47 10° S 22:48:10 64° WSW 22:53:34 10° NNW
Cosmos 1486 Rocket 4.2 22:44:32 10° S 22:49:37 53° ESE 22:54:47 10° NNE
Cosmos 841 Rocket 3.7 22:44:48 10° NNW 22:50:02 63° ENE 22:53:48 19° SE
Cosmos 1455 3.7 22:47:31 10° NNE 22:50:41 23° ENE 22:52:33 17° ESE
Cosmos 1943 3.3 22:45:03 10° NNW 22:50:43 72° ENE 22:54:57 18° SE
SPOT 5 3.3 22:47:02 11° S 22:51:36 62° WSW 22:56:43 10° NNW
Cosmos 1763 Rocket 3.4 22:46:34 10° NNW 22:51:44 82° ENE 22:55:27 19° SSE
SL-16 R/B 4.2 22:47:34 10° NW 22:51:47 22° W 22:55:59 10° SSW
Lacrosse 5 2.3 22:46:53 10° WNW 22:51:48 53° SW 22:55:19 19° SSE
CARTOSAT-1 4.0 22:52:19 20° SE 22:55:07 50° ENE 22:59:18 10° N
SPOT 1/Viking Rocket 3.7 22:54:30 15° S 22:58:51 73° WSW 23:04:01 10° NNW
Cosmos 1328 Rocket 3.9 23:00:13 10° NNW 23:04:30 60° W 23:07:53 16° S
Abrixas rocket 2.4 23:01:39 10° WNW 23:04:50 52° SSW 23:06:04 31° SSE
Cosmos 1515 Rocket 3.7 23:06:07 10° NNW 23:10:26 72° W 23:13:24 20° S
Cosmos 2233 Rocket 4.0 23:04:40 10° N 23:10:56 81° E 23:15:24 20° SSE
Cosmos 1151 Rocket 3.0 23:06:36 10° N 23:11:02 88° E 23:13:43 23° S
Landsat 7 3.9 23:08:35 20° S 23:11:55 78° WSW 23:16:42 10° NNW
USA 234 3.2 23:07:28 10° NE 23:14:02 77° SE 23:20:35 10° SW
IGS 5A 3.4 23:11:57 25° SSE 23:14:17 75° ENE 23:18:27 10° N
H-2A R/B 2.1 23:13:53 26° SSE 23:16:14 64° ENE 23:20:26 10° N
Cosmos 1743 Rocket 3.9 23:13:15 11° SSW 23:17:19 61° W 23:21:38 10° N
Cosmos 2228 Rocket 3.9 23:14:09 10° NNW 23:18:35 48° W 23:22:04 15° SSW
Cosmos 1703 3.2 23:22:24 28° S 23:24:24 70° E 23:28:23 10° NNE
Meteor 2-12 Rocket 4.4 23:19:55 10° N 23:26:02 89° ENE 23:30:01 23° S
Terra 1.8 23:24:00 24° S 23:26:51 79° WSW 23:31:38 10° NNW
Meteor 1-11 4.4 23:23:46 14° SSW 23:28:55 81° W 23:34:47 10° N
CZ-4 R/B 4.0 23:24:49 10° NNE 23:29:36 53° E 23:31:53 28° SSE
Cosmos 1503 Rocket 3.9 23:32:18 22° S 23:35:39 69° ESE 23:40:49 10° NNE
SL-19 R/B 4.3 23:38:24 36° E 23:38:44 38° ENE 23:41:30 10° N
H-2A R/B 3.5 23:39:05 13° SSW 23:43:16 32° W 23:48:08 10° NNW
Cosmos 304 Rocket 3.8 23:39:55 10° NNW 23:44:44 78° WSW 23:46:52 33° S
Cosmos 1626 2.5 23:44:38 26° SSW 23:46:31 58° W 23:50:13 10° N
Cosmos 2058 3.6 23:44:53 19° SSW 23:47:41 52° WNW 23:51:50 10° N
CZ-4B R/B 3.6 23:43:38 10° NNE 23:48:54 66° ESE 23:51:29 30° S
Cosmos 540 Rocket 3.4 23:46:04 10° NNW 23:51:14 81° WSW 23:53:35 33° SSE
Cosmos 2263 Rocket 2.4 23:47:12 10° SSW 23:52:44 71° WNW 23:58:21 10° NNE
Cosmos 968 Rocket 4.3 23:53:13 30° SE 23:54:36 35° ESE 23:59:21 10° NE
